Flag for Canada Weather past 2 weeks in Sarnia, Ontario, Canada

Now
68 °F

Light rain. Fog.


Feels Like: 68 °F
Forecast: 67 / 80 °F
Wind: 8 mph from South

Location: Sarnia Airport

Current Time: Sep 3, 2015 at 10:34:32 PM

Latest Report: Sep 3, 2015 at 10:00 PM


Visibility: 6 mi

Pressure: 29.94 "Hg

Humidity: 94%

Dew point: 66 °F

Location of SarniaLocation

Historic Weather in Sarnia — Graph

°F

Sarnia temperature yesterday

Maximum temperature yesterday: 88 °F (at 2:00 PM)
Minimum temperature yesterday: 68 °F (at 6:00 AM)
Average temperature yesterday: 77 °F

Past Weeks' High & Low Weather Summary

 TemperatureHumidityPressure
High88 °F (Sep 2, 2:00 PM)100% (Aug 28, 3:00 AM)30.23 "Hg (Aug 28, 3:00 AM)
Low48 °F (Aug 28, 7:00 AM)41% (Aug 24, 3:00 PM)29.64 "Hg (Aug 20, 4:00 AM)
Average68 °F78%30.02 "Hg
* Reported Aug 19 9:00 PM — Sep 3 9:00 PM, Sarnia, Weather by CustomWeather, © 2015

Note: Actual official high and low records may vary slightly from our data, if they occured in-between our weather recording intervals... More about our weather records

Advertising

Sarnia weather history for previous 24 hours

 ConditionsComfort  
Time TempWeatherWind HumidityBarometerVisibility
9:00 PM
Thu, Sep 3
68 °FStrong thunderstorms. Mostly cloudy.6 mph88%29.94 "Hg3 mi
8:00 PM70 °FLight rain. Mostly cloudy.5 mph94%N/A6 mi
7:00 PM72 °FMostly cloudy.6 mph88%29.93 "Hg9 mi
6:50 PM70 °FOvercast.6 mph94%29.93 "Hg9 mi
6:00 PM70 °FOvercast.3 mph94%29.92 "Hg9 mi
5:00 PM70 °FLight rain. Mostly cloudy.3 mph94%29.93 "Hg9 mi
4:01 PM70 °FRain. Overcast.8 mph88%29.96 "Hg9 mi
3:01 PM70 °FThundershowers. Mostly cloudy.9 mph88%29.98 "Hg9 mi
2:00 PM82 °FBroken clouds.8 mph74%29.92 "Hg9 mi
1:01 PM86 °FHaze.7 mph62%29.93 "Hg6 mi
12:00 PM82 °FSunny.5 mph70%29.95 "Hg5 mi
11:59 AM81 °FSunny.5 mph74%29.95 "Hg5 mi
11:00 AM79 °FSunny.3 mph74%29.95 "Hg8 mi
10:00 AM73 °FFog.2 mph89%29.96 "Hg5 mi
9:00 AM70 °FSunny.No wind94%29.96 "Hg8 mi
8:00 AM68 °FSunny.3 mph94%29.96 "Hg7 mi
7:00 AM64 °FFog.No wind100%29.96 "Hg5 mi
6:00 AM68 °FClear.2 mph94%29.94 "Hg9 mi
5:00 AM68 °FClear.3 mph94%29.94 "Hg9 mi
4:00 AM70 °FPassing clouds.6 mph88%29.95 "Hg9 mi
3:45 AM70 °FPassing clouds.3 mph88%29.95 "Hg9 mi
3:00 AM70 °FPassing clouds.3 mph88%29.95 "Hg9 mi
2:52 AM70 °FPassing clouds.5 mph88%29.95 "Hg9 mi
2:00 AM70 °FClear.No wind94%29.94 "Hg9 mi
1:00 AM72 °FClear.No wind88%29.93 "Hg9 mi
12:00 AM73 °FMostly cloudy.5 mph89%29.95 "Hg9 mi
11:00 PM
Wed, Sep 2
73 °FThundershowers. Partly cloudy.5 mph89%29.95 "Hg9 mi
10:00 PM73 °FPassing clouds.2 mph94%29.95 "Hg6 mi
Weather by CustomWeather, © 2015

See weather overviewHow to use our weather pages